Regional Weather Roundup
Issued by NWS

Home | Current Version | Previous Version | Text Only | Print | Product List | Glossary Off
Versions: 1 2 3 4 5 6 7 8 9 10 11 12 13 14 15 16 17 18 19 20 21 22 23 24 25 26 27 28 29 30 31 32 33 34 35 36 37 38 39 40 41 42 43 44 45 46 47 48 49 50

000
ASUS43 KBIS 012120
RWRND

NORTH DAKOTA REGIONAL WEATHER ROUNDUP
NATIONAL WEATHER SERVICE BISMARCK ND
400 PM CDT FRI AUG 01 2014

NOTE: "FAIR" INDICATES FEW OR NO CLOUDS BELOW 12,000 FEET WITH NO
SIGNIFICANT WEATHER AND/OR OBSTRUCTIONS TO VISIBILITY.


NDZ001>003-009>011-017-012200-
NORTHWEST NORTH DAKOTA

CITY           SKY/WX    TMP DP  RH WIND       PRES   REMARKS
WILLISTON      MOSUNNY   83  54  36 SE7       30.09S
MINOT          PTSUNNY   80  57  45 E7        30.08F
MINOT AFB      PTSUNNY   80  59  50 SE6       30.08F
$$

NDZ018>021-031>035-040>046-012200-
SOUTHWEST NORTH DAKOTA

CITY           SKY/WX    TMP DP  RH WIND       PRES   REMARKS
BISMARCK       PTSUNNY   91  56  30 VRB7      30.05F
DICKINSON      SUNNY     85  61  44 E13       30.07S
GARRISON         N/A     80  63  55 N6        30.10R
HETTINGER ARPT MOSUNNY   87  52  29 VRB6      30.06F
$$

NDZ004>008-012>016-024-026-027-054-012200-
NORTHEAST NORTH DAKOTA

CITY           SKY/WX    TMP DP  RH WIND       PRES   REMARKS
GRAND FORKS    MOSUNNY   82  60  47 VRB5      30.06F
GRND FRKS AFB  SUNNY     81  62  51 VRB1      30.08S
DEVILS LAKE    MOSUNNY   81  57  44 S8        30.08S
$$

NDZ022-023-025-028>030-036>039-047>053-012200-
SOUTHEAST NORTH DAKOTA

CITY           SKY/WX    TMP DP  RH WIND       PRES   REMARKS
FARGO          SUNNY     83  58  42 N8        30.06S
JAMESTOWN      MOSUNNY   82  57  42 VRB3      30.08S
$$




USA.gov is the U.S. government's official web portal to all federal, state and local government web resources and services.